Location: Unspecified
(40.7945°N, 0.0000°E)
Time: 15:03:23
(UTC+00:00)

Vanguard 3 - All Passes

Search period start: 25 January 2021 00:00
Search period end: 04 February 2021 00:00
Orbit: 508 x 3261 km, 33.3° (Epoch: 24 January)

Date Brightness Start Highest point End Pass type
(mag) Time Alt. Az. Time Alt. Az. Time Alt. Az.
25 Jan - 02:56:53 10° SW 03:02:02 34° SSE 03:10:21 10° E visible
25 Jan - 05:06:29 10° WSW 05:13:52 57° S 05:27:04 10° ESE visible
25 Jan - 07:17:30 10° W 07:27:22 49° SSW 07:43:29 10° SE daylight
25 Jan - 09:30:35 10° W 09:41:44 29° SSW 09:56:32 10° SSE daylight
26 Jan - 01:45:06 10° S 01:48:38 19° SE 01:53:22 10° ESE visible
26 Jan - 03:53:27 10° WSW 03:59:26 49° SSE 04:09:52 10° E visible
26 Jan - 06:03:48 10° W 06:12:03 54° S 06:26:27 10° ESE visible
26 Jan - 08:15:35 10° W 08:25:56 37° SSW 08:41:23 10° SE daylight
26 Jan - 10:31:42 10° WSW 10:40:14 17° SW 10:50:13 10° S daylight
27 Jan - 02:40:49 10° SW 02:45:32 34° SSE 02:53:05 10° E visible
27 Jan - 04:50:30 10° WSW 04:57:14 54° S 05:09:16 10° ESE visible
27 Jan - 07:01:26 10° W 07:10:25 44° SSW 07:25:11 10° SE daylight
27 Jan - 09:14:43 10° WSW 09:24:30 25° SSW 09:37:28 10° SSE daylight
28 Jan - 01:28:50 10° SSW 01:32:09 19° SSE 01:36:33 10° ESE visible
28 Jan - 03:37:29 10° WSW 03:42:57 47° S 03:52:21 10° E visible
28 Jan - 05:47:49 10° W 05:55:20 49° S 06:08:24 10° ESE visible
28 Jan - 07:59:37 10° W 08:08:53 32° SSW 08:22:41 10° SSE daylight
28 Jan - 10:17:22 10° WSW 10:23:01 13° SW 10:29:21 10° SSW daylight
29 Jan - 02:24:47 10° SW 02:29:09 34° SSE 02:35:56 10° E visible
29 Jan - 04:34:33 10° WSW 04:40:43 50° S 04:51:32 10° ESE visible
29 Jan - 06:45:29 10° W 06:53:35 38° SSW 07:06:48 10° SE visible
29 Jan - 08:59:14 10° WSW 09:07:24 20° SSW 09:18:01 10° S daylight
30 Jan - 01:12:36 10° SSW 01:15:44 20° SSE 01:19:50 10° ESE night (unlit)
30 Jan - 03:21:34 10° WSW 03:26:34 45° S 03:34:58 10° ESE visible
30 Jan - 05:31:54 10° W 05:38:42 43° S 05:50:23 10° SE visible
30 Jan - 07:43:53 10° WSW 07:51:59 26° SSW 08:03:48 10° SSE daylight
31 Jan - 02:08:47 10° SW 02:12:49 34° SSE 02:18:54 10° E visible
31 Jan - 04:18:40 10° WSW 04:24:16 46° S 04:33:53 10° ESE visible
31 Jan - 06:29:40 10° WSW 06:36:53 32° SSW 06:48:22 10° SE visible
31 Jan - 08:44:21 10° WSW 08:50:27 15° SSW 08:57:58 10° S daylight
01 Feb - 00:56:23 10° SSW 00:59:24 21° SSE 01:03:13 10° ESE night (unlit)
01 Feb - 03:05:39 10° WSW 03:10:14 42° S 03:17:41 10° ESE visible
01 Feb - 05:16:03 10° WSW 05:22:11 37° SSW 05:32:22 10° SE visible
01 Feb - 07:28:24 10° WSW 07:35:12 21° SSW 07:44:41 10° SSE daylight
01 Feb - 23:45:45 10° SSE 23:46:06 10° SSE 23:46:28 10° SE night (unlit)
02 Feb - 01:52:48 10° SW 01:56:34 33° SSE 02:01:58 10° ESE visible
02 Feb - 04:02:49 10° WSW 04:07:54 40° S 04:16:18 10° ESE visible
02 Feb - 06:14:00 10° WSW 06:20:17 26° SSW 06:29:51 10° SSE visible
02 Feb - 08:31:32 10° SW 08:33:39 11° SSW 08:35:54 10° SSW daylight
03 Feb - 00:40:10 10° SSW 00:43:08 22° SSE 00:46:42 10° ESE night (unlit)
03 Feb - 02:49:46 10° WSW 02:53:59 39° S 03:00:30 10° ESE visible
03 Feb - 05:00:19 10° WSW 05:05:45 31° SSW 05:14:24 10° SE visible
03 Feb - 07:13:24 10° WSW 07:18:33 16° SSW 07:25:12 10° S daylight
03 Feb - 23:28:15 10° S 23:29:46 12° SSE 23:31:18 10° SE night (unlit)
